TimeMST,TemperatureF,Dew PointF,Humidity,Sea Level PressureIn,VisibilityMPH,Wind Direction,Wind SpeedMPH,Gust SpeedMPH,PrecipitationIn,Events,Conditions,WindDirDegrees,DateUTC
12:43 AM,1.9,-2.0,83,30.39,9.0,NE,9.2,-,N/A,,Scattered Clouds,50,2014-01-24 07:43:00
12:48 AM,1.4,-0.4,92,30.39,2.0,NE,8.1,-,N/A,,Mostly Cloudy,50,2014-01-24 07:48:00
12:53 AM,1.9,-0.0,91,30.62,1.0,NE,6.9,-,N/A,,Mist,40,2014-01-24 07:53:00
1:10 AM,3.9,1.9,91,30.39,1.2,NE,5.8,-,N/A,,Overcast,50,2014-01-24 08:10:00
1:36 AM,3.0,1.0,91,30.38,0.2,NNE,5.8,-,N/A,Fog,Light Freezing Fog,20,2014-01-24 08:36:00
1:53 AM,-0.0,-2.9,88,30.64,0.2,North,5.8,-,N/A,Fog,Light Freezing Fog,10,2014-01-24 08:53:00
2:02 AM,-0.9,-4.0,87,30.38,0.8,North,4.6,-,N/A,,Mist,10,2014-01-24 09:02:00
2:18 AM,-0.9,-5.1,83,30.37,0.2,NNE,6.9,-,N/A,Fog,Light Freezing Fog,30,2014-01-24 09:18:00
2:39 AM,-2.0,-4.0,91,30.36,1.0,NE,9.2,-,N/A,,Mist,40,2014-01-24 09:39:00
2:44 AM,-2.0,-5.1,87,30.36,3.0,NE,9.2,-,N/A,,Mostly Cloudy,40,2014-01-24 09:44:00
2:53 AM,-2.9,-6.0,87,30.64,9.0,NE,9.2,-,N/A,,Scattered Clouds,40,2014-01-24 09:53:00
3:31 AM,-4.0,-8.0,83,30.34,4.0,ENE,9.2,-,N/A,,Mostly Cloudy,60,2014-01-24 10:31:00
3:41 AM,-2.9,-6.0,87,30.34,9.0,NE,9.2,-,N/A,,Partly Cloudy,50,2014-01-24 10:41:00
3:53 AM,-4.0,-7.1,87,30.63,10.0,NE,9.2,-,N/A,,Partly Cloudy,50,2014-01-24 10:53:00
4:53 AM,-0.0,-4.0,83,30.59,10.0,NE,8.1,-,N/A,,Clear,50,2014-01-24 11:53:00
5:53 AM,-0.0,-4.0,83,30.61,10.0,NNE,10.4,-,N/A,,Clear,30,2014-01-24 12:53:00
6:53 AM,1.9,-2.0,83,30.60,10.0,NE,6.9,-,N/A,,Clear,40,2014-01-24 13:53:00
7:53 AM,5.0,1.0,84,30.60,10.0,NE,10.4,-,N/A,,Clear,40,2014-01-24 14:53:00
8:53 AM,10.9,6.1,81,30.59,10.0,NE,5.8,-,N/A,,Clear,40,2014-01-24 15:53:00
9:53 AM,19.0,12.9,77,30.58,10.0,NE,5.8,-,N/A,,Clear,50,2014-01-24 16:53:00
10:53 AM,28.0,17.1,63,30.53,10.0,NNE,4.6,-,N/A,,Clear,30,2014-01-24 17:53:00
11:53 AM,37.9,21.0,51,30.43,10.0,Calm,Calm,-,N/A,,Clear,0,2014-01-24 18:53:00
12:53 PM,41.0,23.0,49,30.37,10.0,SW,5.8,-,N/A,,Clear,220,2014-01-24 19:53:00
1:53 PM,44.1,21.0,40,30.34,10.0,West,3.5,-,N/A,,Clear,260,2014-01-24 20:53:00
2:53 PM,46.0,21.0,37,30.33,10.0,SW,5.8,-,N/A,,Clear,230,2014-01-24 21:53:00
3:53 PM,48.0,16.0,28,30.33,10.0,SW,4.6,-,N/A,,Clear,220,2014-01-24 22:53:00
4:53 PM,42.1,21.9,45,30.34,10.0,SW,8.1,-,N/A,,Clear,230,2014-01-24 23:53:00
5:53 PM,34.0,19.9,56,30.40,10.0,North,4.6,-,N/A,,Clear,360,2014-01-25 00:53:00
6:53 PM,28.9,19.0,67,30.42,10.0,NNE,6.9,-,N/A,,Clear,20,2014-01-25 01:53:00
7:53 PM,28.0,17.1,63,30.42,10.0,North,6.9,-,N/A,,Clear,10,2014-01-25 02:53:00
8:53 PM,28.0,17.1,63,30.39,10.0,NE,5.8,-,N/A,,Clear,50,2014-01-25 03:53:00
9:53 PM,24.1,16.0,71,30.38,10.0,ENE,5.8,-,N/A,,Clear,70,2014-01-25 04:53:00
10:53 PM,23.0,16.0,74,30.33,10.0,ENE,6.9,-,N/A,,Clear,60,2014-01-25 05:53:00
11:53 PM,21.9,14.0,72,30.28,10.0,NE,10.4,-,N/A,,Clear,40,2014-01-25 06:53:00